Temp
-7 -7 -6 -6 -6 -7 -7 -7 -6 -6 -6 -5 -5 -6 -6 -6 -5 -6 -5 -5 -5 -5 -5 -6 -6 -6 -6 -5 -5 -5 -5 -4 -4 -5 -5 -5 -5 -6 -6 -5 -5 -5 -5
-7 -7 -6 -5 -6 -7 -7 -7 -6 -6 -6 -5 -6 -6 -6 -6 -6 -5 -5 -6 -6 -6 -5 -5 -6 -6 -6 -6 -5 -5 -5 -5 -5 -5 -5 -5 -5 -5 -5 -6 -6 -6 -5
-7 -7 -6 -6 -6 -6 -7 -7 -7 -6 -6 -6 -6 -7 -7 -6 -5 -6 -6 -6 -6 -5 -5 -6 -6 -6 -6 -6 -6 -6 -6 -6 -6 -6 -6 -6 -5 -5 -5 -5 -5 -5 -6
-6 -7 -6 -6 -6 -6 -6 -6 -6 -6 -6 -7 -7 -7 -7 -6 -6 -6 -6 -6 -6 -6 -6 -6 -6 -6 -6 -6 -6 -6 -6 -6 -6 -6 -6 -6 -6 -6 -6 -5 -5 -5 -5
-7 -7 -6 -6 -6 -6 -6 -7 -7 -7 -7 -7 -8 -8 -7 -6 -6 -6 -6 -6 -6 -6 -6 -7 -6 -6 -6 -6 -6 -6 -6 -6 -6 -6 -6 -6 -5 -5 -6 -6 -6 -5 -5
-7 -7 -6 -7 -7 -6 -7 -7 -7 -7 -7 -8 -7 -8 -7 -7 -7 -6 -8 -7 -7 -7 -7 -6 -7 -7 -7 -6 -6 -6 -6 -6 -6 -6 -6 -5 -5 -5 -5 -5 -5 -5 -5
-6 -6 -7 -7 -6 -6 -7 -7 -7 -7 -7 -7 -7 -8 -8 -8 -8 -8 -7 -7 -6 -7 -7 -6 -6 -6 -6 -6 -7 -6 -5 -6 -6 -5 -5 -5 -5 -5 -5 -5 -5 -5 -5
-6 -6 -6 -6 -6 -6 -7 -7 -7 -7 -7 -7 -7 -7 -7 -7 -7 -7 -7 -6 -6 -6 -7 -7 -7 -6 -5 -6 -6 -5 -5 -5 -5 -5 -5 -5 -5 -5 -5 -6 -6 -6 -6
-5 -5 -6 -6 -6 -6 -7 -7 -7 -7 -6 -6 -7 -7 -7 -6 -7 -7 -7 -6 -6 -6 -6 -6 -6 -6 -5 -5 -5 -5 -5 -5 -5 -5 -5 -5 -5 -5 -5 -5 -5 -6 -6
-5 -6 -6 -6 -6 -6 -6 -6 -6 -6 -6 -6 -6 -6 -6 -6 -6 -6 -7 -6 -5 -5 -5 -5 -5 -5 -5 -5 -5 -5 -5 -6 -6 -6 -6 -6 -6 -6 -6 -6 -7 -6 -6
-5 -5 -6 -5 -6 -6 -6 -6 -6 -6 -6 -6 -6 -6 -7 -7 -6 -6 -5 -5 -5 -5 -5 -5 -5 -5 -5 -5 -6 -6 -6 -6 -6 -6 -6 -6 -6 -6 -6 -7 -6 -7 -7
-5 -5 -6 -5 -5 -6 -6 -6 -6 -6 -6 -6 -6 -7 -6 -6 -6 -5 -5 -5 -5 -5 -5 -5 -5 -4 -5 -5 -5 -6 -6 -7 -7 -7 -7 -7 -7 -7 -7 -7 -7 -7 -7
-5 -5 -5 -5 -5 -6 -6 -6 -6 -6 -6 -6 -6 -6 -5 -5 -5 -5 -5 -5 -5 -5 -5 -4 -4 -5 -5 -6 -6 -7 -7 -7 -7 -7 -7 -7 -7 -7 -7 -6 -6 -6 -7
-5 -5 -5 -5 -5 -6 -5 -6 -6 -6 -6 -6 -5 -5 -5 -5 -4 -4 -4 -4 -5 -4 -4 -4 -4 -4 -5 -5 -6 -6 -6 -7 -7 -7 -7 -7 -7 -7 -7 -6 -6 -6 -6
-5 -5 -6 -5 -5 -5 -5 -5 -6 -6 -5 -5 -4 -4 -4 -4 -4 -4 -4 -4 -4 -4 -4 -4 -4 -4 -4 -5 -6 -6 -6 -7 -7 -7 -7 -7 -7 -7 -6 -6 -6 -7 -6
-5 -5 -5 -5 -5 -5 -5 -5 -5 -5 -4 -4 -4 -4 -4 -4 -4 -4 -4 -4 -4 -4 -4 -4 -4 -4 -4 -5 -5 -6 -6 -6 -6 -7 -7 -7 -7 -7 -7 -7 -7 -7 -7
-5 -5 -5 -5 -5 -5 -5 -5 -5 -4 -3 -3 -4 -4 -4 -4 -4 -4 -4 -4 -4 -4 -4 -4 -4 -4 -4 -5 -5 -5 -6 -6 -6 -6 -7 -7 -7 -7 -7 -7 -7 -7 -7
-5 -5 -5 -5 -5 -5 -5 -5 -4 -4 -3 -3 -3 -3 -4 -4 -4 -4 -5 -4 -4 -4 -4 -4 -4 -4 -4 -5 -5 -6 -6 -6 -6 -6 -7 -7 -7 -7 -7 -7 -7 -7 -7
-6 -5 -6 -5 -5 -5 -5 -5 -4 -3 -3 -3 -4 -4 -4 -4 -4 -5 -5 -4 -4 -4 -4 -4 -4 -4 -4 -4 -4 -5 -6 -6 -7 -7 -7 -7 -7 -7 -7 -7 -8 -8 -7
-5 -5 -6 -5 -5 -5 -5 -4 -4 -3 -3 -3 -4 -4 -4 -4 -4 -4 -4 -4 -4 -4 -4 -4 -4 -4 -4 -5 -5 -5 -6 -6 -7 -7 -7 -7 -7 -8 -8 -8 -8 -8 -8
-5 -5 -5 -4 -4 -4 -4 -4 -3 -4 -4 -4 -4 -4 -4 -4 -4 -5 -5 -5 -4 -4 -4 -4 -4 -4 -5 -5 -5 -6 -6 -7 -7 -7 -7 -7 -7 -8 -8 -8 -7 -8 -8
-5 -5 -4 -4 -4 -4 -4 -4 -4 -4 -4 -4 -4 -5 -4 -4 -5 -5 -5 -5 -5 -5 -5 -4 -4 -4 -4 -4 -5 -5 -6 -6 -7 -7 -7 -8 -8 -8 -9 -8 -8 -9 -9
-5 -4 -4 -4 -4 -4 -4 -4 -4 -4 -4 -4 -4 -4 -4 -5 -5 -5 -5 -5 -5 -5 -5 -5 -5 -4 -4 -4 -5 -5 -5 -6 -7 -7 -7 -8 -8 -9 -9 -9 -9 -9 -9
-4 -4 -4 -4 -4 -4 -4 -4 -4 -4 -4 -4 -4 -4 -5 -5 -5 -5 -5 -5 -5 -5 -5 -5 -5 -5 -5 -5 -5 -5 -6 -6 -7 -8 -8 -8 -8 -9 -9 -9 -9 -9 -10
-5 -5 -4 -4 -4 -4 -4 -4 -4 -4 -4 -4 -4 -4 -5 -6 -5 -6 -6 -5 -5 -5 -6 -6 -6 -5 -5 -5 -5 -6 -6 -7 -7 -8 -8 -8 -8 -9 -9 -9 -9 -10 -10
-6 -5 -5 -5 -5 -4 -4 -4 -4 -4 -4 -4 -5 -5 -6 -6 -6 -6 -6 -6 -6 -6 -6 -5 -6 -6 -6 -6 -5 -6 -6 -7 -7 -8 -8 -8 -9 -9 -9 -10 -10 -10 -11
Height
5911 5910 5912 5909 5907 5905 5905 5903 5903 5903 5904 5904 5905 5906 5908 5909 5912 5917 5923 5928 5932 5934 5936 5936 5937 5938 5940 5941 5942 5941 5941 5939 5936 5935 5934 5932 5932 5930 5927 5926 5924 5921 5919
5912 5912 5914 5911 5911 5908 5907 5905 5906 5904 5904 5905 5907 5908 5910 5910 5913 5917 5924 5927 5929 5932 5934 5935 5938 5939 5939 5940 5940 5939 5938 5936 5935 5934 5932 5931 5929 5929 5925 5922 5921 5918 5916
5913 5912 5913 5911 5913 5911 5911 5907 5905 5904 5905 5906 5908 5909 5909 5908 5911 5916 5921 5927 5931 5934 5935 5937 5938 5937 5939 5939 5938 5937 5936 5935 5933 5931 5930 5929 5925 5922 5920 5918 5916 5915 5912
5914 5913 5913 5912 5912 5913 5913 5911 5908 5906 5907 5907 5907 5907 5907 5908 5913 5918 5926 5930 5932 5934 5935 5935 5935 5937 5936 5935 5935 5934 5933 5932 5931 5930 5928 5927 5924 5920 5916 5912 5910 5908 5908
5914 5913 5913 5913 5914 5915 5913 5912 5910 5910 5911 5910 5910 5909 5909 5914 5918 5922 5926 5928 5931 5932 5931 5933 5935 5935 5936 5934 5932 5930 5928 5927 5928 5926 5924 5923 5920 5919 5915 5910 5907 5904 5903
5915 5915 5916 5916 5916 5916 5915 5913 5913 5916 5916 5914 5914 5913 5913 5916 5920 5922 5926 5928 5930 5929 5931 5931 5934 5934 5932 5930 5929 5928 5926 5924 5925 5923 5920 5917 5916 5914 5913 5909 5905 5903 5901
5917 5919 5919 5917 5919 5917 5917 5916 5918 5919 5920 5919 5918 5919 5920 5923 5925 5926 5927 5930 5931 5931 5932 5934 5934 5932 5930 5925 5929 5926 5925 5923 5922 5921 5918 5914 5913 5911 5909 5906 5903 5900 5898
5921 5922 5919 5918 5918 5918 5919 5922 5923 5924 5923 5923 5923 5925 5927 5929 5930 5929 5931 5930 5931 5930 5931 5933 5932 5930 5928 5929 5928 5926 5924 5922 5920 5918 5916 5913 5910 5909 5906 5902 5900 5898 5895
5923 5922 5919 5921 5922 5923 5925 5926 5926 5926 5927 5927 5929 5930 5931 5932 5931 5931 5930 5927 5929 5929 5929 5931 5929 5929 5930 5929 5928 5925 5922 5920 5917 5915 5912 5910 5907 5906 5903 5899 5896 5894 5892
5923 5923 5923 5925 5925 5926 5928 5929 5928 5929 5929 5930 5932 5932 5931 5932 5932 5932 5930 5931 5929 5931 5930 5930 5930 5930 5929 5927 5926 5922 5919 5917 5915 5911 5909 5906 5905 5902 5900 5897 5894 5891 5888
5924 5923 5927 5929 5930 5930 5932 5933 5933 5933 5933 5934 5934 5932 5932 5931 5934 5933 5934 5932 5933 5934 5930 5927 5926 5925 5923 5921 5919 5918 5914 5913 5910 5908 5905 5904 5902 5900 5897 5894 5892 5890 5886
5925 5925 5930 5933 5934 5933 5935 5937 5936 5937 5937 5937 5936 5934 5936 5935 5936 5936 5934 5933 5933 5931 5929 5926 5924 5922 5920 5918 5915 5913 5910 5907 5905 5904 5902 5900 5899 5896 5892 5890 5888 5886 5883
5925 5929 5932 5935 5935 5936 5938 5939 5939 5939 5938 5938 5938 5937 5937 5937 5936 5935 5935 5935 5934 5933 5930 5927 5925 5922 5918 5915 5912 5908 5906 5904 5902 5901 5900 5897 5894 5892 5890 5887 5884 5881 5878
5926 5930 5931 5935 5936 5938 5939 5940 5940 5938 5939 5941 5941 5940 5939 5938 5937 5938 5938 5937 5935 5933 5928 5927 5924 5920 5917 5914 5912 5909 5906 5904 5901 5899 5896 5893 5891 5889 5887 5883 5880 5877 5873
5927 5929 5932 5936 5938 5939 5940 5939 5939 5940 5941 5941 5941 5941 5940 5939 5939 5939 5938 5937 5935 5932 5931 5928 5925 5921 5918 5914 5911 5908 5905 5903 5900 5897 5893 5891 5888 5885 5882 5879 5876 5872 5868
5927 5930 5933 5935 5938 5938 5939 5940 5941 5942 5942 5942 5941 5940 5940 5940 5940 5939 5938 5936 5934 5933 5931 5928 5925 5920 5916 5913 5911 5908 5904 5900 5898 5895 5891 5888 5885 5882 5879 5875 5871 5868 5863
5925 5929 5933 5934 5936 5937 5938 5939 5940 5940 5941 5940 5940 5940 5940 5940 5940 5939 5938 5937 5935 5933 5931 5927 5923 5919 5916 5912 5909 5905 5903 5900 5896 5893 5889 5885 5882 5879 5875 5871 5867 5862 5857
5925 5929 5930 5933 5934 5937 5938 5939 5940 5940 5940 5941 5941 5941 5941 5941 5939 5938 5937 5935 5933 5931 5930 5927 5923 5919 5914 5911 5907 5905 5901 5897 5893 5889 5885 5881 5877 5872 5869 5865 5860 5855 5850
5924 5926 5929 5932 5934 5936 5937 5939 5940 5940 5941 5942 5942 5941 5940 5939 5937 5936 5935 5933 5933 5931 5929 5926 5923 5918 5913 5908 5904 5901 5897 5893 5889 5884 5880 5877 5873 5868 5864 5859 5854 5848 5842
5923 5926 5929 5931 5933 5935 5937 5938 5940 5941 5942 5942 5941 5941 5939 5939 5937 5937 5936 5935 5934 5931 5928 5925 5921 5917 5912 5907 5903 5898 5894 5889 5885 5881 5875 5870 5866 5861 5857 5852 5847 5842 5834
5923 5925 5928 5929 5931 5934 5936 5938 5939 5941 5942 5942 5941 5941 5940 5939 5938 5937 5936 5934 5932 5930 5926 5923 5919 5915 5911 5905 5900 5895 5890 5884 5879 5874 5870 5865 5862 5857 5851 5845 5840 5834 5829
5921 5924 5926 5927 5930 5932 5934 5937 5938 5940 5940 5941 5941 5941 5941 5939 5938 5936 5934 5933 5931 5928 5924 5920 5917 5912 5907 5902 5898 5892 5887 5882 5877 5872 5867 5861 5856 5851 5846 5840 5834 5829 5822
5919 5922 5923 5925 5927 5930 5933 5934 5936 5938 5939 5939 5940 5939 5939 5937 5936 5935 5933 5931 5928 5925 5922 5918 5913 5909 5904 5899 5894 5887 5883 5878 5872 5867 5863 5857 5851 5846 5842 5837 5831 5824 5816
5915 5919 5920 5923 5924 5927 5930 5932 5934 5935 5937 5938 5938 5937 5937 5936 5935 5932 5930 5928 5925 5921 5918 5914 5910 5907 5902 5896 5890 5884 5879 5873 5867 5863 5857 5852 5848 5843 5837 5831 5825 5816 5808
5913 5917 5918 5920 5923 5925 5928 5930 5931 5932 5934 5935 5935 5934 5934 5933 5931 5929 5927 5925 5922 5920 5917 5913 5909 5903 5897 5891 5885 5880 5875 5869 5863 5858 5853 5847 5842 5836 5831 5824 5817 5809 5802
5910 5913 5915 5919 5921 5923 5926 5927 5928 5929 5930 5931 5931 5930 5929 5928 5927 5925 5924 5922 5920 5917 5914 5910 5905 5899 5893 5888 5883 5877 5871 5865 5858 5853 5848 5843 5837 5831 5824 5818 5810 5803 5796
Wind_Speed
3 4 5 10 6 12 10 12 11 9 8 12 11 9 8 6 16 26 25 21 22 21 19 16 17 18 15 11 10 9 11 11 12 12 15 17 16 18 21 20 21 23 25
3 7 6 12 10 11 9 16 15 14 11 10 12 10 7 8 15 22 26 24 22 20 18 18 17 16 15 12 13 12 12 12 13 13 15 17 17 18 22 23 24 24 25
6 7 7 11 9 11 9 14 14 12 9 10 10 10 7 6 14 26 28 25 21 17 16 15 15 16 16 15 13 11 11 11 12 14 16 20 22 24 24 25 25 23 24
8 7 10 14 12 11 13 15 16 14 14 14 11 11 7 16 32 29 28 24 19 15 14 15 16 14 17 17 14 12 11 11 12 13 14 18 20 22 23 26 24 23 21
10 12 12 15 13 12 14 17 21 20 20 17 18 22 20 27 29 30 24 20 16 13 11 10 13 16 15 13 11 11 10 11 13 15 16 15 15 16 19 21 23 22 22
10 14 14 16 15 14 16 18 19 19 22 19 18 25 25 26 23 23 19 14 12 11 6 14 12 13 16 15 12 8 8 10 15 16 18 16 16 15 16 16 16 15 15
15 13 16 18 18 19 20 21 19 19 19 20 20 19 20 20 19 14 13 10 7 8 7 5 9 13 14 4 6 3 6 11 13 14 15 14 15 15 14 13 14 14 14
15 16 19 21 21 20 19 18 18 18 17 17 16 15 14 14 12 7 6 5 1 1 5 8 9 11 9 7 5 6 8 10 11 12 13 12 12 12 13 13 14 14 14
17 17 19 20 19 20 18 17 16 15 16 15 14 12 9 9 4 4 4 3 3 12 10 8 10 10 6 5 6 7 8 9 9 10 10 10 10 11 12 13 14 16 17
19 19 18 18 20 19 17 14 14 14 14 13 12 10 6 6 4 7 10 7 12 10 9 9 8 7 7 7 9 10 10 10 9 9 10 11 11 12 13 14 15 18 20
20 21 16 19 20 20 18 16 14 14 13 11 9 9 11 12 6 7 7 8 9 10 11 13 14 16 16 16 15 14 13 12 11 10 11 11 12 13 15 15 15 17 20
20 22 19 18 18 18 16 13 10 11 9 11 13 10 10 10 8 11 12 12 12 15 16 17 18 19 19 18 17 14 13 11 11 12 13 14 14 14 16 18 19 19 19
20 21 20 17 14 13 11 8 8 6 9 12 10 10 10 12 12 12 12 12 12 13 15 16 18 20 19 19 17 17 15 13 12 12 13 14 15 17 20 21 21 21 22
19 17 15 11 10 8 4 5 7 7 8 7 9 10 11 12 12 11 10 11 11 12 14 19 21 22 23 22 19 20 16 13 13 12 13 14 16 17 19 20 22 25 28
16 14 13 9 7 3 3 4 6 4 4 7 11 12 12 11 9 9 10 13 12 11 14 19 19 19 20 21 18 18 16 15 14 14 16 17 18 19 20 22 25 26 29
15 13 11 8 4 2 1 2 2 4 6 8 8 9 9 8 8 10 13 11 11 11 13 16 16 18 20 20 17 16 16 17 19 20 21 22 22 23 23 24 26 27 30
13 10 9 7 4 1 1 2 2 5 5 6 6 7 8 9 9 10 11 11 8 9 11 15 18 20 21 20 19 18 18 18 20 22 22 21 21 23 24 25 27 28 31
12 10 7 5 1 2 2 1 2 4 3 3 5 7 9 9 8 7 10 10 6 8 9 14 19 22 23 21 20 18 19 20 23 23 23 23 23 23 23 25 28 29 33
12 11 9 6 4 3 2 2 3 2 2 4 6 7 8 8 9 10 13 5 6 11 10 15 18 21 23 25 26 24 23 24 26 26 27 26 27 27 24 25 28 32 36
15 12 10 9 6 4 2 2 1 1 3 6 5 5 6 6 8 8 8 6 7 11 14 17 20 22 23 24 26 26 25 25 25 27 29 30 27 25 26 28 31 35 39
16 14 14 11 8 5 4 3 1 1 3 1 3 6 7 9 9 9 9 11 14 17 19 20 21 21 22 24 27 28 27 27 28 27 27 27 26 27 28 30 33 39 44
20 16 14 12 9 6 5 4 2 1 1 1 6 8 9 10 10 9 11 12 15 17 18 21 23 24 26 27 29 30 30 29 26 24 26 26 27 29 31 33 37 42 46
20 17 14 13 12 9 7 5 3 3 3 2 5 6 9 9 10 10 11 13 14 14 16 19 24 27 29 31 33 34 34 34 29 28 29 28 30 32 33 35 40 44 47
19 17 16 15 13 11 8 6 4 5 5 6 7 8 9 8 9 12 13 12 13 17 19 25 28 28 31 34 37 37 36 33 27 28 29 31 34 35 35 37 41 47 49
18 18 16 14 13 12 10 7 6 5 4 6 8 8 6 7 11 11 11 11 15 21 25 26 27 28 32 36 38 38 37 34 30 29 30 33 35 37 38 40 42 48 50
18 14 13 11 11 11 11 10 8 7 5 6 9 9 9 10 13 12 14 14 16 22 25 25 26 31 37 40 37 36 36 36 35 32 32 36 39 41 41 42 44 47 49
Wind_Direction
126 78 74 105 81 73 57 84 90 96 136 152 151 158 149 121 165 179 179 168 173 187 190 199 209 217 235 239 257 265 263 271 308 290 310 304 302 309 306 307 307 307 309
124 118 119 112 110 95 74 86 97 83 122 146 148 134 137 148 180 186 189 188 186 193 202 209 224 225 233 242 251 259 277 280 297 305 309 316 313 305 305 307 307 309 309
99 95 106 105 107 109 112 86 78 78 102 129 139 135 138 153 174 168 170 175 178 186 200 214 221 230 242 242 251 262 276 288 301 311 314 316 309 310 306 308 309 307 303
113 115 112 112 104 105 95 84 71 79 97 96 113 148 141 134 160 163 168 171 180 189 202 214 224 229 237 242 253 270 286 295 303 304 312 303 308 314 312 318 322 323 323
114 117 120 119 113 100 94 89 87 85 84 97 102 107 117 131 165 160 156 163 170 184 205 225 238 243 252 253 264 270 278 296 300 304 305 304 304 308 305 309 312 318 320
101 114 127 125 120 107 98 93 92 94 93 97 124 113 120 129 137 139 142 157 169 197 238 226 252 256 270 270 254 287 316 316 314 311 310 319 322 323 319 319 322 326 332
110 119 121 112 114 104 99 97 98 97 97 96 92 92 97 104 120 129 140 142 167 222 222 253 322 322 315 17 262 7 330 316 312 313 317 325 323 323 324 323 327 329 323
112 112 108 106 103 99 97 100 104 104 103 99 99 99 104 108 120 140 144 152 130 286 219 56 25 48 55 22 359 334 330 329 325 324 327 333 333 323 318 315 314 314 315
112 106 101 105 107 107 106 109 106 103 100 96 88 86 84 85 76 66 336 114 76 65 36 16 20 32 46 17 347 341 338 329 329 327 330 329 333 326 325 320 322 324 322
118 109 107 112 109 110 109 106 101 96 88 85 85 83 70 84 78 80 48 39 40 35 30 35 24 14 3 342 328 322 319 311 307 311 311 322 318 317 321 324 329 326 322
122 111 110 113 112 112 109 103 97 89 81 76 80 91 72 108 75 65 62 45 49 48 39 20 9 0 352 346 342 333 326 317 318 304 299 300 303 309 319 329 326 319 314
128 122 129 126 121 114 107 103 97 86 78 84 94 89 90 97 97 88 76 54 34 28 20 10 0 349 345 345 343 342 331 325 316 307 303 303 308 315 321 322 324 323 316
131 136 135 133 120 113 110 102 81 70 65 84 78 84 85 80 78 68 52 38 24 14 10 6 353 348 348 348 351 349 342 338 329 323 318 320 325 331 328 327 323 318 316
139 145 136 135 124 125 112 77 62 52 62 88 102 96 84 75 67 57 41 24 14 16 22 7 360 352 348 346 348 349 346 348 344 335 330 330 328 323 322 320 320 320 318
144 144 150 160 157 158 103 59 56 55 69 96 95 90 84 73 60 45 34 25 18 20 12 5 1 348 344 345 350 353 355 353 343 338 332 326 323 323 321 319 318 316 316
149 152 158 153 173 153 110 79 58 78 92 102 90 76 66 54 38 37 35 25 23 16 11 10 3 0 1 356 346 340 344 343 336 330 325 323 323 322 320 319 317 318 319
150 155 159 153 156 176 313 3 47 88 92 80 61 49 37 30 25 23 16 12 14 22 18 14 11 9 9 359 351 339 332 327 327 325 322 321 319 318 318 318 318 318 317
156 160 147 159 149 240 293 5 106 114 98 68 49 36 27 24 21 6 347 345 20 27 17 7 7 4 5 2 354 345 331 326 322 323 323 319 316 315 314 315 316 316 317
178 165 170 164 173 221 242 209 161 128 51 35 36 28 15 11 356 339 341 350 29 4 5 8 1 0 0 359 358 353 341 331 324 321 317 315 315 316 313 316 315 318 321
188 169 175 163 153 166 198 202 168 27 41 36 27 8 7 10 352 8 48 28 5 6 7 5 0 358 356 356 354 348 343 338 332 333 332 329 324 317 317 318 316 317 319
196 175 177 149 149 165 187 195 234 54 36 35 13 27 38 32 44 52 32 18 13 12 8 4 1 359 357 353 353 348 344 339 336 334 331 330 324 321 321 318 316 317 324
189 177 166 157 169 183 201 216 227 334 351 61 31 40 36 49 46 32 27 29 15 5 5 1 358 357 357 355 351 353 351 346 337 333 331 331 326 323 322 321 321 323 323
177 178 169 176 181 191 207 219 231 262 296 12 24 26 27 38 41 36 20 0 0 3 3 359 357 354 355 352 352 351 348 346 340 336 333 327 325 325 322 320 319 319 322
175 182 180 186 181 193 213 217 247 278 316 337 348 358 11 19 357 345 353 359 353 353 359 356 351 351 355 353 352 351 346 342 338 333 328 324 322 323 320 317 318 322 325
170 183 182 184 187 199 207 207 218 253 294 313 315 327 343 320 321 333 345 337 345 346 343 337 337 346 351 352 350 347 343 340 335 332 327 321 320 322 321 320 321 322 326
176 182 183 195 200 209 217 216 218 235 258 280 293 304 303 301 318 317 324 325 331 336 341 340 342 338 336 337 338 340 339 336 335 332 332 328 326 324 321 321 321 325 325